Time,TemperatureF,DewpointF,PressureIn,WindDirection,WindDirectionDegrees,WindSpeedMPH,WindSpeedGustMPH,Humidity,HourlyPrecipIn,Conditions,Clouds,dailyrainin,SolarRadiationWatts/m^2,SoftwareType,DateUTC
2014-01-12 00:11:00,62.2,61.0,30.02,SW,236,3.0,4.0,96,0.00,,,0.00,0,weatherlink.com 1.10,2014-01-12 05:11:00,
2014-01-12 00:26:00,62.1,61.0,30.02,SW,216,2.0,4.0,96,0.00,,,0.00,0,weatherlink.com 1.10,2014-01-12 05:26:00,
2014-01-12 00:41:00,62.7,62.0,30.02,SW,227,3.0,6.0,97,0.00,,,0.00,0,weatherlink.com 1.10,2014-01-12 05:41:00,
2014-01-12 00:56:00,63.8,63.0,30.02,SW,223,2.0,7.0,97,0.00,,,0.00,0,weatherlink.com 1.10,2014-01-12 05:56:00,
2014-01-12 01:11:00,64.1,63.0,30.03,WSW,250,3.0,5.0,97,0.00,,,0.00,0,weatherlink.com 1.10,2014-01-12 06:11:00,
2014-01-12 01:26:00,64.5,64.0,30.03,SW,235,5.0,9.0,97,0.00,,,0.00,0,weatherlink.com 1.10,2014-01-12 06:26:00,
2014-01-12 01:41:00,64.8,64.0,30.03,SW,236,3.0,7.0,97,0.00,,,0.00,0,weatherlink.com 1.10,2014-01-12 06:41:00,
2014-01-12 01:56:00,64.8,64.0,30.03,WSW,255,4.0,8.0,97,0.00,,,0.00,0,weatherlink.com 1.10,2014-01-12 06:56:00,
2014-01-12 02:11:00,64.7,64.0,30.04,WSW,241,1.0,8.0,97,0.00,,,0.00,0,weatherlink.com 1.10,2014-01-12 07:11:00,
2014-01-12 02:26:00,64.2,63.0,30.04,SW,229,5.0,8.0,96,0.00,,,0.00,0,weatherlink.com 1.10,2014-01-12 07:26:00,
2014-01-12 02:41:00,63.9,63.0,30.04,West,280,1.0,8.0,96,0.00,,,0.00,0,weatherlink.com 1.10,2014-01-12 07:41:00,
2014-01-12 02:56:00,63.3,62.0,30.04,WNW,294,1.0,7.0,96,0.00,,,0.00,0,weatherlink.com 1.10,2014-01-12 07:56:00,
2014-01-12 03:11:00,63.0,62.0,30.04,West,275,6.0,9.0,95,0.00,,,0.00,0,weatherlink.com 1.10,2014-01-12 08:11:00,
2014-01-12 03:26:00,62.7,61.0,30.05,West,269,4.0,14.0,94,0.00,,,0.00,0,weatherlink.com 1.10,2014-01-12 08:26:00,
2014-01-12 03:41:00,61.9,60.0,30.06,West,281,6.0,10.0,93,0.00,,,0.00,0,weatherlink.com 1.10,2014-01-12 08:41:00,
2014-01-12 03:56:00,61.1,59.0,30.06,WNW,296,2.0,10.0,91,0.00,,,0.00,0,weatherlink.com 1.10,2014-01-12 08:56:00,
2014-01-12 04:11:00,60.5,57.0,30.06,NW,315,3.0,10.0,88,0.00,,,0.00,0,weatherlink.com 1.10,2014-01-12 09:11:00,
2014-01-12 04:26:00,60.1,57.0,30.07,West,278,2.0,14.0,88,0.00,,,0.00,0,weatherlink.com 1.10,2014-01-12 09:26:00,
2014-01-12 04:42:00,59.5,56.0,30.07,North,355,2.0,9.0,88,0.00,,,0.00,0,weatherlink.com 1.10,2014-01-12 09:42:00,
2014-01-12 04:56:00,59.1,55.0,30.07,WNW,294,2.0,12.0,85,0.00,,,0.00,0,weatherlink.com 1.10,2014-01-12 09:56:00,
2014-01-12 05:11:00,58.9,54.0,30.07,NNW,347,1.0,16.0,83,0.01,,,0.01,0,weatherlink.com 1.10,2014-01-12 10:11:00,
2014-01-12 05:26:00,58.4,54.0,30.08,WNW,290,3.0,11.0,84,0.01,,,0.01,0,weatherlink.com 1.10,2014-01-12 10:26:00,
2014-01-12 05:42:00,57.8,52.0,30.08,West,281,9.0,13.0,80,0.01,,,0.01,0,weatherlink.com 1.10,2014-01-12 10:42:00,
2014-01-12 05:57:00,57.3,50.0,30.09,NW,321,3.0,11.0,77,0.01,,,0.01,0,weatherlink.com 1.10,2014-01-12 10:57:00,
2014-01-12 06:12:00,57.0,50.0,30.09,NNW,336,4.0,10.0,76,0.00,,,0.01,0,weatherlink.com 1.10,2014-01-12 11:12:00,
2014-01-12 06:27:00,56.2,49.0,30.10,West,271,4.0,11.0,77,0.00,,,0.01,0,weatherlink.com 1.10,2014-01-12 11:27:00,
2014-01-12 06:42:00,55.9,49.0,30.10,NW,324,2.0,9.0,77,0.00,,,0.01,0,weatherlink.com 1.10,2014-01-12 11:42:00,
2014-01-12 06:57:00,55.6,49.0,30.10,NNW,343,2.0,9.0,79,0.00,,,0.01,0,weatherlink.com 1.10,2014-01-12 11:57:00,
2014-01-12 07:12:00,55.4,49.0,30.11,NNW,330,4.0,11.0,79,0.00,,,0.01,0,weatherlink.com 1.10,2014-01-12 12:12:00,
2014-01-12 07:27:00,55.0,49.0,30.11,WNW,302,4.0,10.0,79,0.00,,,0.01,7,weatherlink.com 1.10,2014-01-12 12:27:00,
2014-01-12 07:42:00,54.6,49.0,30.12,North,355,3.0,7.0,80,0.00,,,0.01,16,weatherlink.com 1.10,2014-01-12 12:42:00,
2014-01-12 07:57:00,54.8,49.0,30.13,WNW,289,0.0,5.0,80,0.00,,,0.01,25,weatherlink.com 1.10,2014-01-12 12:57:00,
2014-01-12 08:12:00,55.3,49.0,30.13,North,350,1.0,4.0,80,0.00,,,0.01,88,weatherlink.com 1.10,2014-01-12 13:12:00,
2014-01-12 08:27:00,56.2,49.0,30.14,NNW,338,1.0,9.0,77,0.00,,,0.01,139,weatherlink.com 1.10,2014-01-12 13:27:00,
2014-01-12 08:42:00,56.9,49.0,30.15,NNW,338,2.0,9.0,75,0.00,,,0.01,186,weatherlink.com 1.10,2014-01-12 13:42:00,
2014-01-12 08:57:00,57.9,50.0,30.16,NNW,338,5.0,8.0,74,0.00,,,0.01,246,weatherlink.com 1.10,2014-01-12 13:57:00,
2014-01-12 09:12:00,58.2,49.0,30.18,NNE,22,1.0,11.0,71,0.00,,,0.01,297,weatherlink.com 1.10,2014-01-12 14:12:00,
2014-01-12 09:27:00,58.9,49.0,30.18,NNE,31,1.0,12.0,70,0.00,,,0.01,350,weatherlink.com 1.10,2014-01-12 14:27:00,
2014-01-12 09:42:00,59.6,49.0,30.19,North,355,2.0,9.0,68,0.00,,,0.01,399,weatherlink.com 1.10,2014-01-12 14:42:00,
2014-01-12 09:58:00,60.7,49.0,30.19,NNE,20,7.0,8.0,66,0.00,,,0.01,446,weatherlink.com 1.10,2014-01-12 14:58:00,
2014-01-12 10:13:00,61.2,48.0,30.20,NNE,15,1.0,8.0,62,0.00,,,0.01,497,weatherlink.com 1.10,2014-01-12 15:13:00,
2014-01-12 10:28:00,62.0,47.0,30.20,North,360,4.0,9.0,59,0.00,,,0.01,578,weatherlink.com 1.10,2014-01-12 15:28:00,
2014-01-12 10:43:00,61.9,47.0,30.20,NE,34,3.0,10.0,58,0.00,,,0.01,494,weatherlink.com 1.10,2014-01-12 15:43:00,
2014-01-12 10:58:00,62.7,46.0,30.20,NE,51,3.0,10.0,55,0.00,,,0.01,608,weatherlink.com 1.10,2014-01-12 15:58:00,
2014-01-12 11:13:00,63.9,44.0,30.19,North,355,0.0,9.0,49,0.00,,,0.01,661,weatherlink.com 1.10,2014-01-12 16:13:00,
2014-01-12 11:28:00,63.5,46.0,30.19,ENE,66,4.0,7.0,53,0.00,,,0.01,684,weatherlink.com 1.10,2014-01-12 16:28:00,
2014-01-12 11:43:00,62.5,46.0,30.18,ESE,108,4.0,10.0,55,0.00,,,0.01,343,weatherlink.com 1.10,2014-01-12 16:43:00,
2014-01-12 11:58:00,62.5,46.0,30.18,ENE,69,3.0,10.0,55,0.00,,,0.01,714,weatherlink.com 1.10,2014-01-12 16:58:00,
2014-01-12 12:13:00,64.0,46.0,30.17,ENE,71,3.0,8.0,53,0.00,,,0.01,737,weatherlink.com 1.10,2014-01-12 17:13:00,
2014-01-12 12:28:00,63.9,44.0,30.16,NE,38,2.0,8.0,49,0.00,,,0.01,780,weatherlink.com 1.10,2014-01-12 17:28:00,
2014-01-12 12:43:00,64.7,44.0,30.16,North,5,2.0,9.0,47,0.00,,,0.01,714,weatherlink.com 1.10,2014-01-12 17:43:00,
2014-01-12 12:58:00,65.4,44.0,30.15,NNE,12,4.0,10.0,47,0.00,,,0.01,738,weatherlink.com 1.10,2014-01-12 17:58:00,
2014-01-12 13:13:00,64.9,43.0,30.14,NE,39,1.0,9.0,45,0.00,,,0.01,700,weatherlink.com 1.10,2014-01-12 18:13:00,
2014-01-12 13:28:00,65.6,44.0,30.13,NE,39,4.0,6.0,45,0.00,,,0.01,684,weatherlink.com 1.10,2014-01-12 18:28:00,
2014-01-12 13:43:00,65.7,42.0,30.13,NE,55,3.0,8.0,42,0.00,,,0.01,722,weatherlink.com 1.10,2014-01-12 18:43:00,
2014-01-12 13:58:00,66.0,41.0,30.12,NNW,333,4.0,6.0,41,0.00,,,0.01,670,weatherlink.com 1.10,2014-01-12 18:58:00,
2014-01-12 14:13:00,66.4,41.0,30.12,North,360,4.0,7.0,40,0.00,,,0.01,691,weatherlink.com 1.10,2014-01-12 19:13:00,
2014-01-12 14:28:00,66.6,41.0,30.12,East,83,0.0,8.0,39,0.00,,,0.01,673,weatherlink.com 1.10,2014-01-12 19:28:00,
2014-01-12 14:43:00,66.2,42.0,30.11,North,360,1.0,9.0,42,0.00,,,0.01,649,weatherlink.com 1.10,2014-01-12 19:43:00,
2014-01-12 14:58:00,66.2,41.0,30.11,NE,46,2.0,10.0,40,0.00,,,0.01,448,weatherlink.com 1.10,2014-01-12 19:58:00,
2014-01-12 15:13:00,66.6,42.0,30.11,NE,44,2.0,6.0,41,0.00,,,0.01,369,weatherlink.com 1.10,2014-01-12 20:13:00,
2014-01-12 15:28:00,66.5,43.0,30.11,ENE,61,4.0,6.0,42,0.00,,,0.01,524,weatherlink.com 1.10,2014-01-12 20:28:00,
2014-01-12 15:43:00,66.5,43.0,30.12,East,91,3.0,7.0,42,0.00,,,0.01,471,weatherlink.com 1.10,2014-01-12 20:43:00,
2014-01-12 15:58:00,66.4,43.0,30.12,NE,34,2.0,6.0,43,0.00,,,0.01,424,weatherlink.com 1.10,2014-01-12 20:58:00,
2014-01-12 16:13:00,66.2,43.0,30.12,NNE,24,1.0,7.0,44,0.00,,,0.01,371,weatherlink.com 1.10,2014-01-12 21:13:00,
2014-01-12 16:28:00,66.6,49.0,30.12,WNW,285,0.0,8.0,53,0.00,,,0.01,316,weatherlink.com 1.10,2014-01-12 21:28:00,
2014-01-12 16:43:00,64.4,53.0,30.13,NNW,346,3.0,6.0,66,0.00,,,0.01,260,weatherlink.com 1.10,2014-01-12 21:43:00,
2014-01-12 16:58:00,63.5,53.0,30.14,NW,325,0.0,3.0,69,0.00,,,0.01,202,weatherlink.com 1.10,2014-01-12 21:58:00,
2014-01-12 17:13:00,62.1,53.0,30.14,West,281,4.0,4.0,72,0.00,,,0.01,141,weatherlink.com 1.10,2014-01-12 22:13:00,
2014-01-12 17:28:00,60.8,53.0,30.14,West,276,0.0,2.0,75,0.00,,,0.01,30,weatherlink.com 1.10,2014-01-12 22:28:00,
2014-01-12 17:43:00,59.6,52.0,30.14,WNW,286,0.0,4.0,77,0.00,,,0.01,12,weatherlink.com 1.10,2014-01-12 22:43:00,
2014-01-12 17:58:00,58.1,52.0,30.14,WNW,291,0.0,3.0,80,0.00,,,0.01,5,weatherlink.com 1.10,2014-01-12 22:58:00,
2014-01-12 18:13:00,56.8,52.0,30.15,WNW,293,0.0,3.0,83,0.00,,,0.01,0,weatherlink.com 1.10,2014-01-12 23:13:00,
2014-01-12 18:28:00,55.9,52.0,30.15,WNW,289,0.0,3.0,85,0.00,,,0.01,0,weatherlink.com 1.10,2014-01-12 23:28:00,
2014-01-12 18:43:00,55.3,51.0,30.15,WNW,289,0.0,3.0,86,0.00,,,0.01,0,weatherlink.com 1.10,2014-01-12 23:43:00,
2014-01-12 18:58:00,54.6,51.0,30.16,WNW,289,0.0,1.0,88,0.00,,,0.01,0,weatherlink.com 1.10,2014-01-12 23:58:00,
2014-01-12 19:13:00,53.7,51.0,30.16,WNW,289,0.0,0.0,89,0.00,,,0.01,0,weatherlink.com 1.10,2014-01-13 00:13:00,
2014-01-12 19:28:00,52.8,50.0,30.16,WNW,289,0.0,0.0,90,0.00,,,0.01,0,weatherlink.com 1.10,2014-01-13 00:28:00,
2014-01-12 19:43:00,52.0,50.0,30.16,WNW,289,0.0,0.0,91,0.00,,,0.01,0,weatherlink.com 1.10,2014-01-13 00:43:00,
2014-01-12 19:58:00,51.8,50.0,30.16,WNW,289,0.0,0.0,93,0.00,,,0.01,0,weatherlink.com 1.10,2014-01-13 00:58:00,
2014-01-12 20:13:00,51.4,50.0,30.16,WNW,289,0.0,0.0,93,0.00,,,0.01,0,weatherlink.com 1.10,2014-01-13 01:13:00,
2014-01-12 20:28:00,51.0,49.0,30.16,WNW,289,0.0,1.0,94,0.00,,,0.01,0,weatherlink.com 1.10,2014-01-13 01:28:00,
2014-01-12 20:43:00,51.0,49.0,30.17,WNW,289,0.0,1.0,94,0.00,,,0.01,0,weatherlink.com 1.10,2014-01-13 01:43:00,
2014-01-12 20:59:00,50.6,49.0,30.18,WNW,289,0.0,0.0,94,0.00,,,0.01,0,weatherlink.com 1.10,2014-01-13 01:59:00,
2014-01-12 21:14:00,50.5,49.0,30.18,WNW,289,0.0,1.0,95,0.00,,,0.01,0,weatherlink.com 1.10,2014-01-13 02:14:00,
2014-01-12 21:29:00,50.0,48.0,30.18,WNW,289,0.0,0.0,94,0.00,,,0.01,0,weatherlink.com 1.10,2014-01-13 02:29:00,
2014-01-12 21:44:00,49.9,49.0,30.18,WNW,289,0.0,0.0,95,0.00,,,0.01,0,weatherlink.com 1.10,2014-01-13 02:44:00,
2014-01-12 21:59:00,49.6,48.0,30.18,WNW,289,0.0,1.0,94,0.00,,,0.01,0,weatherlink.com 1.10,2014-01-13 02:59:00,
2014-01-12 22:14:00,49.4,48.0,30.18,WNW,289,0.0,0.0,95,0.00,,,0.01,0,weatherlink.com 1.10,2014-01-13 03:14:00,
2014-01-12 22:29:00,49.5,48.0,30.18,NNE,26,0.0,2.0,95,0.00,,,0.01,0,weatherlink.com 1.10,2014-01-13 03:29:00,
2014-01-12 22:44:00,51.9,51.0,30.18,NE,45,0.0,4.0,95,0.00,,,0.01,0,weatherlink.com 1.10,2014-01-13 03:44:00,
2014-01-12 22:59:00,51.9,50.0,30.17,NE,49,0.0,1.0,92,0.00,,,0.01,0,weatherlink.com 1.10,2014-01-13 03:59:00,
2014-01-12 23:14:00,53.5,50.0,30.17,ENE,76,2.0,5.0,87,0.00,,,0.01,0,weatherlink.com 1.10,2014-01-13 04:14:00,
2014-01-12 23:29:00,53.5,49.0,30.17,ENE,64,1.0,4.0,85,0.00,,,0.01,0,weatherlink.com 1.10,2014-01-13 04:29:00,
2014-01-12 23:44:00,53.3,49.0,30.16,East,92,1.0,3.0,84,0.00,,,0.01,0,weatherlink.com 1.10,2014-01-13 04:44:00,
2014-01-12 23:59:00,53.5,49.0,30.16,ENE,78,1.0,4.0,84,0.00,,,0.01,0,weatherlink.com 1.10,2014-01-13 04:59:00,